EW6070 Athens GR current weather conditions

sailwx.info

Wind from 319 at 0 knots

Air temperature 28.3° C
Dewpoint 8.6° C

Last reported at 2020-Aug-12 06:00 UTC.
Time now 2020-Aug-12 07:06 UTC

Location: N 37°55' E 023°43'.
View on Google Maps.

See reports from other nearby stations

  
Tides and Currents Weather Stations Pressure Air Temp Water Temp Dewpoint Dewpoint Depression Visibility Wind Speed Wind Dir Waves Ship Positions
date/time (UTC)wind fromknots sea level pressurealtimeterstation pressurevisibilityair tempwater tempwave heightnotes
2020-Aug-12 06:00 319 0 28.3
2020-Aug-12 05:45 288 1 27.8
2020-Aug-12 05:30 322 27.2
2020-Aug-12 05:15 326 27.2
2020-Aug-12 05:00 333 27.2
2020-Aug-12 04:45 333 26.7
2020-Aug-12 04:30 354 26.1
2020-Aug-12 04:15 008 25.6
2020-Aug-12 04:00 008 25.6
2020-Aug-12 03:45 354 25.6
2020-Aug-12 03:30 335 26.1
2020-Aug-12 03:15 346 25.6
2020-Aug-12 03:00 25.6
2020-Aug-12 02:45 357 0 25.6
2020-Aug-12 02:30 25.6
2020-Aug-12 02:15 013 0 26.1
2020-Aug-12 02:02 336 0 26.1
2020-Aug-12 01:46 350 0 26.1
2020-Aug-12 01:31 26.1
2020-Aug-12 01:17 344 26.7
2020-Aug-12 01:15 343 26.7
2020-Aug-12 01:01 26.7
2020-Aug-12 00:47 001 26.7
2020-Aug-12 00:32 014 26.7
2020-Aug-12 00:16 018 26.7
2020-Aug-12 00:01 020 27.2
2020-Aug-11 23:46 350 27.2
2020-Aug-11 23:32 346 27.2
2020-Aug-11 23:15 346 27.2
2020-Aug-11 23:02 342 27.2
2020-Aug-11 22:46 27.2
2020-Aug-11 22:31 013 0 27.2
2020-Aug-11 22:16 013 0 27.2
2020-Aug-11 22:02 003 0 27.2
2020-Aug-11 21:46 006 0 27.2
2020-Aug-11 21:31 001 0 27.2
2020-Aug-11 21:16 357 27.2
2020-Aug-11 21:00 342 0 27.2
2020-Aug-11 20:46 346 0 27.8
2020-Aug-11 20:31 031 0 27.8
2020-Aug-11 20:16 016 0 27.8
2020-Aug-11 20:01 020 0 27.8
2020-Aug-11 19:46 001 0 28.3
2020-Aug-11 19:31 28.3
2020-Aug-11 19:16 008 0 28.3
2020-Aug-11 19:01 28.3
2020-Aug-11 18:46 041 0 28.9
2020-Aug-11 18:32 28.9
2020-Aug-11 18:16 354 0 29.4
2020-Aug-11 18:01 333 0 29.4
2020-Aug-11 17:46 037 1 29.4
2020-Aug-11 17:31 031 1 30.0
2020-Aug-11 17:16 315 2 30.0
2020-Aug-11 17:01 001 1 30.6
2020-Aug-11 16:46 014 2 31.1
2020-Aug-11 16:31 342 2 31.1
2020-Aug-11 16:15 052 2 31.7
2020-Aug-11 16:01 032 4 31.7
2020-Aug-11 15:46 040 5 31.7
2020-Aug-11 15:31 008 5 31.7
2020-Aug-11 15:15 316 6 31.7
2020-Aug-11 15:01 329 4 32.2
2020-Aug-11 14:45 323 6 32.2
2020-Aug-11 14:31 058 5 32.2
2020-Aug-11 14:15 311 5 32.2
2020-Aug-11 14:01 016 4 32.2
2020-Aug-11 13:46 088 5 32.2
2020-Aug-11 13:30 292 5 32.8
2020-Aug-11 13:15 123 4 32.2
2020-Aug-11 13:00 356 4 32.8
2020-Aug-11 12:45 339 3 32.8
2020-Aug-11 12:30 093 5 32.2
2020-Aug-11 12:15 010 5 32.2
2020-Aug-11 12:00 010 6 31.7
2020-Aug-11 11:45 014 5 31.7
2020-Aug-11 11:30 347 5 31.7
2020-Aug-11 11:15 333 4 31.7
2020-Aug-11 11:00 343 5 31.7
2020-Aug-11 10:45 342 4 31.7
2020-Aug-11 10:30 099 5 31.1
2020-Aug-11 10:15 282 6 31.1
2020-Aug-11 10:00 333 6 30.6
2020-Aug-11 09:45 308 5 30.6
2020-Aug-11 09:30 062 6 30.6
2020-Aug-11 09:15 339 6 30.6
2020-Aug-11 09:00 359 4 30.6
2020-Aug-11 08:45 328 6 30.6
2020-Aug-11 08:30 086 6 30.0
2020-Aug-11 08:16 025 5 30.0
2020-Aug-11 08:01 282 4 30.0
2020-Aug-11 07:46 068 5 29.4
2020-Aug-11 07:31 353 2 29.4
2020-Aug-11 07:16 28.9
2020-Aug-11 07:00 322 1 28.3
2020-Aug-11 06:47 254 1 27.2
2020-Aug-11 06:31 305 0 27.2
2020-Aug-11 06:15 294 27.2
2020-Aug-11 06:01 27.2
2020-Aug-11 05:45 26.7
2020-Aug-11 05:30 26.1
2020-Aug-11 05:16 26.1
2020-Aug-11 05:01 25.6
2020-Aug-11 04:45 359 0 25.0
2020-Aug-11 04:30 25.0
2020-Aug-11 04:15 001 24.4
2020-Aug-11 04:00 24.4
2020-Aug-11 03:45 356 1 24.4
2020-Aug-11 03:31 326 1 24.4
2020-Aug-11 03:15 320 1 24.4
2020-Aug-11 03:00 336 1 25.0
2020-Aug-11 02:45 333 1 25.0
2020-Aug-11 02:30 349 2 25.0
2020-Aug-11 02:16 325 25.0
2020-Aug-11 02:00 006 25.0
2020-Aug-11 01:45 018 25.0
2020-Aug-11 01:30 356 24.4
2020-Aug-11 01:16 354 25.0
2020-Aug-11 01:00 354 25.0
2020-Aug-11 00:46 352 0 25.0
2020-Aug-11 00:30 352 1 25.0
2020-Aug-11 00:15 346 2 25.0
2020-Aug-11 00:00 342 1 25.0
2020-Aug-10 23:45 356 0 25.0
2020-Aug-10 23:30 357 0 25.6
2020-Aug-10 23:15 357 0 25.6
2020-Aug-10 23:00 353 0 25.6
2020-Aug-10 22:45 359 26.1
2020-Aug-10 22:30 011 1 26.1
2020-Aug-10 22:15 347 0 26.1
2020-Aug-10 22:00 359 0 26.1
2020-Aug-10 21:45 359 26.1
2020-Aug-10 21:30 359 0 26.1
2020-Aug-10 21:15 353 0 26.1
2020-Aug-10 21:00 295 0 26.1
2020-Aug-10 20:45 295 1 26.7
2020-Aug-10 20:30 305 0 26.7
2020-Aug-10 20:15 318 0 26.7
2020-Aug-10 20:00 322 26.7
2020-Aug-10 19:45 329 0 27.2
2020-Aug-10 19:30 315 0 27.2
2020-Aug-10 19:15 354 1 27.2
2020-Aug-10 18:47 359 2 27.2
2020-Aug-10 18:31 287 2 27.8
2020-Aug-10 18:16 335 2 27.8
2020-Aug-10 18:02 312 1 27.8
2020-Aug-10 17:46 335 3 27.8
2020-Aug-10 17:31 356 3 28.3
2020-Aug-10 17:16 292 4 28.3
2020-Aug-10 17:02 354 5 28.3
2020-Aug-10 16:46 356 4 28.9
2020-Aug-10 16:31 335 5 29.4
2020-Aug-10 16:17 315 5 29.4
2020-Aug-10 16:01 359 4 29.4
2020-Aug-10 15:47 010 5 30.0
2020-Aug-10 15:32 336 4 30.0
2020-Aug-10 15:16 045 4 30.0
2020-Aug-10 15:01 006 6 30.0
2020-Aug-10 14:45 333 5 30.0
2020-Aug-10 14:31 025 6 30.0
2020-Aug-10 14:18 30.0
2020-Aug-10 14:01 353 5 30.0
2020-Aug-10 13:46 312 6 30.0
2020-Aug-10 13:31 018 6 30.0
2020-Aug-10 13:17 291 6 30.0
2020-Aug-10 13:01 356 5 30.0
2020-Aug-10 12:46 30.0
2020-Aug-10 12:31 023 6 30.0
2020-Aug-10 12:16 339 6 30.0
2020-Aug-10 12:01 343 6 30.0
2020-Aug-10 11:46 323 6 30.0
2020-Aug-10 11:31 30.0
2020-Aug-10 11:16 354 6 29.4
2020-Aug-10 11:00 347 6 29.4
2020-Aug-10 10:47 315 6 29.4
2020-Aug-10 10:32 031 6 29.4
2020-Aug-10 10:15 336 6 29.4
2020-Aug-10 10:00 257 6 28.9
2020-Aug-10 09:45 023 6 28.9
2020-Aug-10 09:31 309 6 28.3
2020-Aug-10 09:15 299 7 28.3
2020-Aug-10 09:00 011 6 28.3
2020-Aug-10 08:45 330 6 28.3
2020-Aug-10 08:30 312 6 28.3
2020-Aug-10 08:15 013 8 27.8
2020-Aug-10 08:01 041 7 27.8
2020-Aug-10 07:45 023 7 27.8
2020-Aug-10 07:30 356 7 27.2
2020-Aug-10 07:15 322 6 27.2
2020-Aug-10 07:00 339 6 27.2